Monroe, MI

12:42 AM EDT on September 24, 2017 (GMT -0400)
Custer

Weather History for KTTF - July, 2014

Change the Weather History Date:

Wednesday, July 9, 2014

  Actual Average Record
Temperature  
Mean Temperature 69 °F -  
Max Temperature 78 °F 87 °F 101 °F (1936)
Min Temperature 60 °F 65 °F 51 °F (1961)
Cooling Degree Days 4    
Growing Degree Days 19 (Base 50)    
Moisture  
Dew Point 58 °F    
Average Humidity 69    
Maximum Humidity 94    
Minimum Humidity 42    
Precipitation  
Precipitation 0.00 in - - ()
Sea Level Pressure  
Sea Level Pressure 29.88 in    
Wind  
Wind Speed 5 mph (WNW)    
Max Wind Speed 14 mph    
Max Gust Speed 21 mph    
Visibility 10 miles    
Events      
Averages and records for this station are not official NWS values.
T = Trace of Precipitation, MM = Missing Value Source: NWS Daily Summary

Daily Weather History Graph

Daily Weather History Graph

Search for Another Location

Airport or City:

Trip Planner

Search our weather history database for the weather conditions in past years. The results will help you decide how hot, cold, wet, or windy it might be!

Date:

Astronomy

Jul. 09, 2014 Rise Set
Actual Time 6:07 AM EDT 9:10 PM EDT
Civil Twilight 5:33 AM EDT 9:44 PM EDT
Nautical Twilight 4:50 AM EDT 10:27 PM EDT
Astronomical Twilight 3:59 AM EDT 11:17 PM EDT
Moon 6:19 PM EDT (7/9) 3:25 AM EDT (7/9)
Length of Visible Light 16h 10m
Length of Day
15h 03m
Waxing Gibbous, 89% of the Moon is Illuminated
Jul 9
Waxing Gibbous
Jul 12
Full
Jul 18
Last Quarter
Jul 26
New
Aug 3
First Quarter

Hourly Weather History & Observations

Time (EDT) Temp. Dew Point Humidity Pressure Visibility Wind Dir Wind Speed Gust Speed Precip Events Conditions
12:14 AM 66.2 °F 60.8 °F 83% 29.77 in 10.0 mi WNW 3.5 mph - N/A   Scattered Clouds
12:34 AM 66.2 °F 60.8 °F 83% 29.77 in 10.0 mi West 4.6 mph - N/A   Clear
12:54 AM 66.2 °F 60.8 °F 83% 29.77 in 10.0 mi West 5.8 mph - N/A   Clear
1:14 AM 64.4 °F 60.8 °F 88% 29.78 in 10.0 mi West 5.8 mph - N/A   Clear
1:34 AM 64.4 °F 60.8 °F 88% 29.78 in 10.0 mi WSW 4.6 mph - N/A   Clear
1:54 AM 64.4 °F 60.8 °F 88% 29.79 in 10.0 mi WSW 3.5 mph - N/A   Clear
2:14 AM 64.4 °F 60.8 °F 88% 29.79 in 10.0 mi SSW 4.6 mph - N/A   Clear
2:35 AM 64.4 °F 60.8 °F 88% 29.79 in 10.0 mi WSW 3.5 mph - N/A   Scattered Clouds
2:50 AM 62.6 °F 60.8 °F 94% 29.79 in 10.0 mi SW 3.5 mph - N/A   Scattered Clouds
3:12 AM 62.6 °F 60.8 °F 94% 29.79 in 10.0 mi SW 3.5 mph - N/A   Clear
3:32 AM 62.6 °F 59.0 °F 88% 29.79 in 10.0 mi WSW 3.5 mph - N/A   Clear
3:52 AM 62.6 °F 59.0 °F 88% 29.79 in 10.0 mi Calm Calm - N/A   Clear
4:12 AM 62.6 °F 59.0 °F 88% 29.79 in 10.0 mi Calm Calm - N/A   Clear
4:32 AM 62.6 °F 59.0 °F 88% 29.79 in 10.0 mi WSW 3.5 mph - N/A   Clear
4:52 AM 62.6 °F 59.0 °F 88% 29.79 in 10.0 mi WSW 4.6 mph - N/A   Clear
5:12 AM 62.6 °F 59.0 °F 88% 29.79 in 10.0 mi Calm Calm - N/A   Clear
5:33 AM 62.6 °F 59.0 °F 88% 29.80 in 10.0 mi Calm Calm - N/A   Clear
5:53 AM 62.6 °F 59.0 °F 88% 29.80 in 10.0 mi Calm Calm - N/A   Clear
6:13 AM 60.8 °F 57.2 °F 88% 29.81 in 10.0 mi West 3.5 mph - N/A   Clear
6:33 AM 60.8 °F 59.0 °F 94% 29.81 in 10.0 mi West 4.6 mph - N/A   Clear
6:53 AM 62.6 °F 59.0 °F 88% 29.82 in 10.0 mi West 4.6 mph - N/A   Clear
7:13 AM 64.4 °F 60.8 °F 88% 29.83 in 10.0 mi West 3.5 mph - N/A   Clear
7:33 AM 64.4 °F 60.8 °F 88% 29.84 in 10.0 mi West 5.8 mph - N/A   Clear
7:53 AM 64.4 °F 60.8 °F 88% 29.84 in 10.0 mi West 5.8 mph - N/A   Clear
8:13 AM 66.2 °F 60.8 °F 83% 29.85 in 10.0 mi West 5.8 mph - N/A   Clear
8:33 AM 66.2 °F 60.8 °F 83% 29.85 in 10.0 mi WNW 5.8 mph - N/A   Clear
8:54 AM 66.2 °F 60.8 °F 83% 29.85 in 10.0 mi West 6.9 mph - N/A   Clear
9:14 AM 68.0 °F 60.8 °F 78% 29.86 in 10.0 mi NW 6.9 mph - N/A   Clear
9:34 AM 69.8 °F 60.8 °F 73% 29.86 in 10.0 mi WNW 9.2 mph - N/A   Scattered Clouds
9:54 AM 69.8 °F 60.8 °F 73% 29.86 in 10.0 mi WNW 9.2 mph - N/A   Scattered Clouds
10:14 AM 71.6 °F 60.8 °F 69% 29.87 in 10.0 mi NW 11.5 mph 16.1 mph N/A   Scattered Clouds
10:34 AM 71.6 °F 60.8 °F 69% 29.87 in 10.0 mi NW 11.5 mph - N/A   Scattered Clouds
10:54 AM 71.6 °F 59.0 °F 64% 29.88 in 10.0 mi WNW 8.1 mph - N/A   Scattered Clouds
11:14 AM 71.6 °F 59.0 °F 64% 29.88 in 10.0 mi WNW 9.2 mph 17.3 mph N/A   Mostly Cloudy
11:34 AM 73.4 °F 59.0 °F 61% 29.88 in 10.0 mi West 6.9 mph - N/A   Scattered Clouds
11:50 AM 75.2 °F 59.0 °F 57% 29.89 in 10.0 mi WNW 8.1 mph - N/A   Scattered Clouds
12:10 PM 75.2 °F 57.2 °F 53% 29.89 in 10.0 mi NW 8.1 mph - N/A   Scattered Clouds
12:30 PM 73.4 °F 57.2 °F 57% 29.89 in 10.0 mi NW 9.2 mph - N/A   Scattered Clouds
12:50 PM 73.4 °F 57.2 °F 57% 29.90 in 10.0 mi WNW 9.2 mph - N/A   Mostly Cloudy
1:10 PM 75.2 °F 55.4 °F 50% 29.90 in 10.0 mi West 13.8 mph 20.7 mph N/A   Scattered Clouds
1:30 PM 77.0 °F 55.4 °F 47% 29.90 in 10.0 mi West 12.7 mph 17.3 mph N/A   Clear
1:50 PM 77.0 °F 57.2 °F 50% 29.90 in 10.0 mi NW 12.7 mph 17.3 mph N/A   Scattered Clouds
2:10 PM 78.8 °F 57.2 °F 47% 29.89 in 10.0 mi NW 9.2 mph - N/A   Scattered Clouds
2:30 PM 77.0 °F 57.2 °F 50% 29.89 in 10.0 mi WNW 10.4 mph - N/A   Scattered Clouds
2:50 PM 77.0 °F 55.4 °F 47% 29.89 in 10.0 mi NW 9.2 mph - N/A   Scattered Clouds
3:11 PM 78.8 °F 55.4 °F 44% 29.90 in 10.0 mi NW 8.1 mph - N/A   Clear
3:31 PM 77.0 °F 55.4 °F 47% 29.90 in 10.0 mi West 9.2 mph - N/A   Clear
3:51 PM 78.8 °F 53.6 °F 42% 29.90 in 10.0 mi NW 9.2 mph 17.3 mph N/A   Scattered Clouds
4:11 PM 78.8 °F 55.4 °F 44% 29.90 in 10.0 mi WNW 10.4 mph - N/A   Scattered Clouds
4:31 PM 78.8 °F 55.4 °F 44% 29.90 in 10.0 mi NW 9.2 mph 18.4 mph N/A   Clear
4:51 PM 77.0 °F 55.4 °F 47% 29.91 in 10.0 mi WNW 6.9 mph - N/A   Mostly Cloudy
5:11 PM 78.8 °F 55.4 °F 44% 29.91 in 10.0 mi WNW 9.2 mph - N/A   Scattered Clouds
5:31 PM 77.0 °F 55.4 °F 47% 29.91 in 10.0 mi North 10.4 mph - N/A   Scattered Clouds
5:52 PM 75.2 °F 55.4 °F 50% 29.92 in 10.0 mi NNW 10.4 mph - N/A   Scattered Clouds
6:12 PM 75.2 °F 57.2 °F 53% 29.92 in 10.0 mi NNW 11.5 mph - N/A   Scattered Clouds
6:32 PM 77.0 °F 55.4 °F 47% 29.92 in 10.0 mi NNW 8.1 mph - N/A   Clear
6:52 PM 75.2 °F 55.4 °F 50% 29.92 in 10.0 mi NNW 9.2 mph - N/A   Clear
7:12 PM 75.2 °F 55.4 °F 50% 29.93 in 10.0 mi NNW 6.9 mph - N/A   Clear
7:32 PM 75.2 °F 55.4 °F 50% 29.94 in 10.0 mi NW 6.9 mph - N/A   Clear
7:52 PM 73.4 °F 55.4 °F 53% 29.94 in 10.0 mi NNW 6.9 mph - N/A   Clear
8:12 PM 73.4 °F 55.4 °F 53% 29.94 in 10.0 mi NNW 5.8 mph - N/A   Clear
8:32 PM 71.6 °F 55.4 °F 57% 29.95 in 10.0 mi NNW 4.6 mph - N/A   Clear
8:52 PM 71.6 °F 57.2 °F 60% 29.95 in 10.0 mi Calm Calm - N/A   Clear
9:12 PM 68.0 °F 57.2 °F 68% 29.96 in 10.0 mi Calm Calm - N/A   Clear
9:33 PM 66.2 °F 57.2 °F 73% 29.97 in 10.0 mi Calm Calm - N/A   Clear
9:53 PM 66.2 °F 57.2 °F 73% 29.98 in 10.0 mi Calm Calm - N/A   Clear
10:13 PM 62.6 °F 57.2 °F 82% 29.99 in 10.0 mi Calm Calm - N/A   Clear
10:33 PM 64.4 °F 57.2 °F 77% 30.00 in 10.0 mi Calm Calm - N/A   Clear
10:53 PM 64.4 °F 57.2 °F 77% 30.01 in 10.0 mi Calm Calm - N/A   Clear
11:13 PM 62.6 °F 57.2 °F 82% 30.01 in 10.0 mi Calm Calm - N/A   Scattered Clouds
11:33 PM 62.6 °F 57.2 °F 82% 30.01 in 10.0 mi Calm Calm - N/A   Mostly Cloudy
11:54 PM 64.4 °F 57.2 °F 77% 30.02 in 10.0 mi Calm Calm - N/A   Scattered Clouds